Suomi 100 (43804 NORAD) Tracking and Keplerian Element Data

This shows tracking and keplerian element data for the satellite.

Feedback or suggestion? Click here.




ElementValue
Catalog43804
NameSuomi 100
Epoch Orbit3268
Epoch Day191.45244293
Epoch Year2019
RAAN263.1268
Inclination97.7414
Eccentricity0.0013891
Argument of Perigee254.9547
Mean Anonmoly105.0136
Mean Motion14.9527494
Decay Rate-1.37E-06
L11 43804U 18099AY 19191.45244293 -.00000137 00000-0 -71832-5 0 9999
L22 43804 97.7414 263.1268 0013891 254.9547 105.0136 14.95274940 32689

Live tracking and technical data element details for Suomi 100 (NORAD 43804). Suomi 100 can be tracked NOW for your location showing map with azimuth and elevation plus other details from your city location.

Track the satellite on the map from your city or location and see movement details for azimuth, elevation, latitude, longitude, range, height, and movement on the map or in text.







IsCatalogInMostPopularTable: catalog: 43804, numindb: 366
Update: records affected: 1



GetName: 43804 Suomi 100

Hit Count: updated at: Fri, 19 Jul 2019 22:49:59 GMT